AST,Max TemperatureF,Mean TemperatureF,Min TemperatureF,Max Dew PointF,MeanDew PointF,Min DewpointF,Max Humidity, Mean Humidity, Min Humidity, Max Sea Level PressureIn, Mean Sea Level PressureIn, Min Sea Level PressureIn, Max VisibilityMiles, Mean VisibilityMiles, Min VisibilityMiles, Max Wind SpeedMPH, Mean Wind SpeedMPH, Max Gust SpeedMPH,PrecipitationIn, CloudCover, Events, WindDirDegrees
2012-9-1,109,100,91,81,70,61,67,39,19,29.57,29.52,29.50,6,5,4,21,10,,0.00,,,322
2012-9-2,108,100,93,72,64,54,47,31,11,29.62,29.57,29.53,9,6,4,24,15,,0.00,,,338
2012-9-3,104,97,90,77,70,64,55,43,29,29.61,29.55,29.50,9,8,7,17,11,28,0.00,,,338
2012-9-4,104,96,87,79,72,59,66,46,23,29.58,29.54,29.50,10,7,6,16,9,,0.00,,,341
2012-9-5,106,98,90,77,68,52,55,40,14,29.63,29.58,29.53,10,9,7,16,11,,0.00,,,353
2012-9-6,106,98,91,82,66,50,75,39,14,29.67,29.61,29.56,9,8,7,14,8,,0.00,,,9
2012-9-7,109,98,88,84,76,59,79,55,20,29.66,29.60,29.56,7,6,6,17,6,,0.00,,,140
2012-9-8,108,98,88,86,77,59,79,58,22,29.63,29.56,29.50,7,6,5,16,6,,0.00,1,,128
2012-9-9,101,94,87,84,79,67,84,63,26,29.65,29.58,29.53,9,5,4,12,7,,0.00,1,,39
2012-9-10,106,96,87,82,72,43,75,50,12,29.65,29.58,29.53,10,6,4,13,8,,0.00,,,349
2012-9-11,107,98,90,79,71,61,63,44,19,29.63,29.58,29.56,10,8,6,17,8,,0.00,,,348
2012-9-12,110,100,91,79,69,52,59,41,15,29.64,29.60,29.56,9,9,9,18,11,,0.00,,,343
2012-9-13,105,98,91,75,66,54,56,35,17,29.70,29.64,29.59,10,9,7,22,12,,0.00,,,341
2012-9-14,107,97,87,73,60,43,59,33,7,29.68,29.61,29.56,7,6,6,15,8,28,0.00,,,299
2012-9-15,98,92,85,79,72,61,66,53,40,29.59,29.54,29.50,6,5,4,15,9,,0.00,1,,345
2012-9-16,96,89,82,81,77,70,79,64,44,29.66,29.59,29.53,6,5,4,15,7,,0.00,1,,351
2012-9-17,107,97,87,79,71,50,70,49,15,29.69,29.64,29.59,6,5,4,17,10,,0.00,,,338
2012-9-18,103,95,87,79,68,46,75,47,14,29.72,29.67,29.62,10,9,7,12,6,,0.00,,,355
2012-9-19,101,91,81,79,68,54,75,48,19,29.77,29.69,29.65,7,5,4,12,4,,0.00,,,40
2012-9-20,102,94,85,84,69,48,71,48,21,29.75,29.71,29.68,6,5,3,14,7,,0.00,,,154
2012-9-21,99,92,84,82,79,68,84,67,37,29.78,29.72,29.68,6,5,4,13,6,23,0.00,,,119
2012-9-22,105,94,84,84,68,32,94,52,8,29.81,29.75,29.71,9,4,2,10,6,,0.00,,,36
2012-9-23,102,93,84,79,74,57,75,56,20,29.80,29.72,29.68,6,4,4,17,5,,0.00,,,96
2012-9-24,101,93,85,79,73,50,75,55,17,29.79,29.72,29.65,9,4,3,12,5,,0.00,,,13
2012-9-25,99,92,86,75,70,63,66,48,31,29.80,29.73,29.68,7,5,5,15,8,,0.00,,,350
2012-9-26,95,86,78,73,63,57,62,42,22,29.87,29.81,29.77,10,9,7,10,4,,0.00,,,32
2012-9-27,97,92,86,81,77,72,75,62,48,29.91,29.85,29.80,9,6,5,13,7,,0.00,1,,94
2012-9-28,97,92,86,82,77,57,84,64,26,29.94,29.88,29.86,9,5,2,12,7,,0.00,2,Thunderstorm,55
2012-9-29,98,92,85,79,75,72,74,60,42,29.93,29.87,29.83,7,6,5,12,4,,0.00,1,,62
2012-9-30,97,90,82,77,74,67,74,59,31,29.93,29.86,29.83,7,6,5,12,4,,0.00,1,,90